| time (UTC) | temp F | wind direction | speed MPH | gust MPH | rain 1hr in | rain 24hr in | rain mn in | humidity % | barometer mb |
| 20260901221502 | 93 | 196 | 2.0 | 10.0 | 0.00 | 0.00 | 0.00 | 58 | 1010.0 |
| 20260901214502 | 94 | 174 | 3.0 | 9.0 | 0.00 | 0.00 | 0.00 | 59 | 1010.0 |
| 20260901213002 | 94 | 181 | 5.0 | 8.0 | 0.00 | 0.00 | 0.00 | 60 | 1010.1 |
| 20260901211502 | 93 | 170 | 1.0 | 7.0 | 0.00 | 0.00 | 0.00 | 59 | 1010.3 |
| 20260901210002 | 93 | 218 | 3.0 | 9.0 | 0.00 | 0.00 | 0.00 | 60 | 1010.4 |
| 20260901204502 | 93 | 178 | 2.0 | 8.0 | 0.00 | 0.00 | 0.00 | 61 | 1010.6 |
| 20260901203002 | 93 | 244 | 2.0 | 8.0 | 0.00 | 0.00 | 0.00 | 60 | 1010.7 |
| 20260901200002 | 93 | 176 | 3.0 | 9.0 | 0.00 | 0.00 | 0.00 | 63 | 1011.0 |
| 20260901194502 | 92 | 212 | 3.0 | 8.0 | 0.00 | 0.00 | 0.00 | 62 | 1011.1 |
| 20260901193002 | 92 | 224 | 2.0 | 9.0 | 0.00 | 0.00 | 0.00 | 62 | 1011.2 |
| 20260901191502 | 92 | 178 | 5.0 | 8.0 | 0.00 | 0.00 | 0.00 | 64 | 1011.3 |
| 20260901190002 | 92 | 214 | 3.0 | 7.0 | 0.00 | 0.00 | 0.00 | 63 | 1011.3 |
| 20260901184502 | 91 | 194 | 2.0 | 6.0 | 0.00 | 0.00 | 0.00 | 67 | 1011.4 |
| 20260901183002 | 91 | 184 | 2.0 | 6.0 | 0.00 | 0.00 | 0.00 | 66 | 1011.5 |
| 20260901181503 | 91 | 172 | 2.0 | 7.0 | 0.00 | 0.00 | 0.00 | 64 | 1011.6 |
| 20260901180002 | 91 | 194 | 2.0 | 6.0 | 0.00 | 0.00 | 0.00 | 68 | 1011.7 |
| 20260901174502 | 89 | 143 | 2.0 | 8.0 | 0.00 | 0.00 | 0.00 | 70 | 1011.8 |
| 20260901173003 | 89 | 194 | 2.0 | 5.0 | 0.00 | 0.00 | 0.00 | 73 | 1011.9 |
| 20260901171503 | 89 | 173 | 3.0 | 8.0 | 0.00 | 0.00 | 0.00 | 70 | 1012.0 |
| 20260901170002 | 88 | 151 | 3.0 | 7.0 | 0.00 | 0.00 | 0.00 | 76 | 1012.0 |
| 20260901164502 | 87 | 95 | 3.0 | 8.0 | 0.00 | 0.00 | 0.00 | 77 | 1012.1 |
| 20260901161502 | 87 | 150 | 3.0 | 5.0 | 0.00 | 0.00 | 0.00 | 80 | 1012.2 |
| 20260901160002 | 85 | 181 | 3.0 | 5.0 | 0.00 | 0.00 | 0.00 | 81 | 1012.2 |
| 20260901154502 | 84 | 155 | 2.0 | 3.0 | 0.00 | 0.00 | 0.00 | 83 | 1012.2 |
| 20260901151503 | 81 | 165 | 2.0 | 6.0 | 0.00 | 0.00 | 0.00 | 91 | 1012.0 |
| 20260901150002 | 79 | 191 | 2.0 | 3.0 | 0.00 | 0.00 | 0.00 | 95 | 1012.1 |
| 20260901144503 | 78 | 257 | 0.0 | 2.0 | 0.00 | 0.00 | 0.00 | 95 | 1012.3 |
| 20260901143002 | 78 | 169 | 2.0 | 3.0 | 0.00 | 0.00 | 0.00 | 96 | 1012.1 |
| 20260901141502 | 77 | 163 | 1.0 | 2.0 | 0.00 | 0.00 | 0.00 | 96 | 1012.3 |
| 20260901140002 | 76 | 109 | 1.0 | 3.0 | 0.00 | 0.00 | 0.00 | 96 | 1012.3 |
| 20260901134502 | 75 | 153 | 1.0 | 3.0 | 0.00 | 0.00 | 0.00 | 96 | 1012.5 |
| 20260901133003 | 75 | 142 | 2.0 | 3.0 | 0.00 | 0.00 | 0.00 | 96 | 1012.7 |
| 20260901131502 | 74 | 175 | 0.0 | 3.0 | 0.00 | 0.00 | 0.00 | 96 | 1012.7 |
| 20260901130002 | 74 | 175 | 1.0 | 2.0 | 0.00 | 0.00 | 0.00 | 96 | 1012.8 |
| 20260901124503 | 73 | 175 | 0.0 | 1.0 | 0.00 | 0.00 | 0.00 | 96 | 1012.6 |
| 20260901123003 | 73 | 175 | 1.0 | 2.0 | 0.00 | 0.00 | 0.00 | 96 | 1012.5 |
| 20260901121502 | 73 | 175 | 1.0 | 2.0 | 0.00 | 0.00 | 0.00 | 96 | 1012.4 |
| 20260901120003 | 72 | 161 | 0.0 | 2.0 | 0.00 | 0.00 | 0.00 | 95 | 1012.3 |
| 20260901113002 | 74 | 16 | 2.0 | 3.0 | 0.00 | 0.00 | 0.00 | 95 | 1011.7 |
| 20260901111502 | 74 | 7 | 1.0 | 3.0 | 0.00 | 0.00 | 0.00 | 95 | 1011.7 |
| 20260901110002 | 73 | 327 | 1.0 | 2.0 | 0.00 | 0.00 | 0.00 | 95 | 1011.8 |
| 20260901104502 | 73 | 327 | 0.0 | 0.0 | 0.00 | 0.00 | 0.00 | 95 | 1011.8 |
| 20260901103002 | 74 | 327 | 0.0 | 1.0 | 0.00 | 0.00 | 0.00 | 95 | 1011.9 |
| 20260901094502 | 73 | 327 | 0.0 | 1.0 | 0.00 | 0.00 | 0.00 | 95 | 1011.6 |
| 20260901093002 | 74 | 327 | 0.0 | 0.0 | 0.00 | 0.00 | 0.00 | 95 | 1011.2 |
| 20260901091503 | 74 | 327 | 0.0 | 0.0 | 0.00 | 0.00 | 0.00 | 95 | 1011.4 |
| 20260901084502 | 74 | 327 | 0.0 | 1.0 | 0.00 | 0.00 | 0.00 | 95 | 1011.4 |
| 20260901083002 | 74 | 327 | 0.0 | 0.0 | 0.00 | 0.00 | 0.00 | 95 | 1011.5 |
| 20260901081503 | 73 | 327 | 0.0 | 1.0 | 0.00 | 0.00 | 0.00 | 94 | 1011.4 |
| 20260901080002 | 73 | 327 | 0.0 | 2.0 | 0.00 | 0.00 | 0.00 | 93 | 1011.4 |
| 20260901074502 | 75 | 327 | 0.0 | 1.0 | 0.00 | 0.00 | 0.00 | 94 | 1011.5 |
| 20260901071503 | 75 | 292 | 1.0 | 1.0 | 0.00 | 0.00 | 0.00 | 94 | 1011.6 |
| 20260901070002 | 75 | 292 | 0.0 | 0.0 | 0.00 | 0.00 | 0.00 | 94 | 1011.5 |
| 20260901064503 | 75 | 292 | 0.0 | 0.0 | 0.00 | 0.00 | 0.00 | 94 | 1011.5 |
| 20260901063003 | 75 | 292 | 0.0 | 0.0 | 0.00 | 0.00 | 0.00 | 93 | 1011.6 |
| 20260901061503 | 76 | 292 | 0.0 | 0.0 | 0.00 | 0.00 | 0.00 | 93 | 1011.5 |
| 20260901060003 | 76 | 292 | 0.0 | 1.0 | 0.00 | 0.00 | 0.00 | 93 | 1011.5 |
| 20260901054503 | 76 | 292 | 0.0 | 0.0 | 0.00 | 0.00 | 0.00 | 92 | 1011.5 |
| 20260901053002 | 76 | 292 | 0.0 | 2.0 | 0.00 | 0.00 | 0.00 | 92 | 1011.4 |
| 20260901051503 | 76 | 292 | 0.0 | 1.0 | 0.00 | 0.00 | 0.00 | 92 | 1011.3 |
| 20260901050003 | 77 | 292 | 1.0 | 2.0 | 0.00 | 0.00 | 0.00 | 91 | 1011.2 |
| 20260901043002 | 77 | 292 | 0.0 | 1.0 | 0.00 | 0.00 | 0.00 | 90 | 1010.8 |
| 20260901041503 | 77 | 292 | 0.0 | 2.0 | 0.00 | 0.00 | 0.00 | 90 | 1010.8 |
| 20260901040003 | 78 | 284 | 1.0 | 3.0 | 0.00 | 0.00 | 0.00 | 90 | 1010.8 |
| 20260901034503 | 78 | 183 | 0.0 | 2.0 | 0.00 | 0.00 | 0.00 | 90 | 1010.8 |
| 20260901033003 | 78 | 180 | 0.0 | 2.0 | 0.00 | 0.00 | 0.00 | 90 | 1010.5 |
| 20260901031502 | 79 | 180 | 0.0 | 2.0 | 0.00 | 0.00 | 0.00 | 89 | 1010.6 |
| 20260901030002 | 79 | 180 | 1.0 | 2.0 | 0.00 | 0.00 | 0.00 | 89 | 1010.7 |
| 20260901023003 | 80 | 180 | 0.0 | 0.0 | 0.00 | 0.00 | 0.00 | 88 | 1010.7 |
| 20260901021503 | 80 | 180 | 0.0 | 1.0 | 0.00 | 0.00 | 0.00 | 87 | 1010.5 |
| 20260901013002 | 82 | 180 | 0.0 | 0.0 | 0.00 | 0.00 | 0.00 | 85 | 1010.3 |
| 20260901010003 | 84 | 180 | 0.0 | 1.0 | 0.00 | 0.00 | 0.00 | 81 | 1010.1 |
| 20260901001503 | 87 | 227 | 0.0 | 2.0 | 0.00 | 0.00 | 0.00 | 75 | 1009.8 |
| 20260901000003 | 87 | 229 | 1.0 | 5.0 | 0.00 | 0.00 | 0.00 | 74 | 1009.9 |
| 20260831234503 | 89 | 212 | 1.0 | 3.0 | 0.00 | 0.00 | 0.00 | 72 | 1009.8 |
| 20260831233003 | 89 | 185 | 2.0 | 7.0 | 0.00 | 0.00 | 0.00 | 71 | 1009.8 |
| 20260831231503 | 89 | 232 | 3.0 | 9.0 | 0.00 | 0.00 | 0.00 | 70 | 1009.8 |
| 20260831223003 | 89 | 180 | 3.0 | 10.0 | 0.00 | 0.00 | 0.00 | 69 | 1009.7 |